Time+07,TemperatureF,Dew PointF,Humidity,Sea Level PressureIn,VisibilityMPH,Wind Direction,Wind SpeedMPH,Gust SpeedMPH,PrecipitationIn,Events,Conditions,WindDirDegrees,DateUTC
12:00 AM,80.6,75.2,84,29.77,1.2,NNE,3.5,-,N/A,,Mostly Cloudy,20,2013-10-13 17:00:00
12:30 AM,80.6,75.2,84,29.74,1.2,Calm,Calm,-,N/A,,Mostly Cloudy,0,2013-10-13 17:30:00
1:00 AM,78.8,75.2,89,29.74,1.2,Calm,Calm,-,N/A,Thunderstorm,Mostly Cloudy,0,2013-10-13 18:00:00
1:30 AM,78.8,75.2,89,29.74,1.2,NNE,9.2,-,N/A,,Mostly Cloudy,20,2013-10-13 18:30:00
2:00 AM,78.8,75.2,89,29.74,1.2,NNE,4.6,-,N/A,,Mostly Cloudy,30,2013-10-13 19:00:00
3:30 AM,77.0,75.2,94,29.71,1.2,North,3.5,-,N/A,,Mostly Cloudy,10,2013-10-13 20:30:00
4:00 AM,77.0,75.2,94,29.71,1.2,North,4.6,-,N/A,,Mostly Cloudy,360,2013-10-13 21:00:00
4:30 AM,77.0,73.4,89,29.74,1.2,North,6.9,-,N/A,Thunderstorm,Mostly Cloudy,10,2013-10-13 21:30:00
5:00 AM,77.0,73.4,89,29.74,1.2,North,6.9,-,N/A,Thunderstorm,Mostly Cloudy,10,2013-10-13 22:00:00
6:00 AM,75.2,71.6,89,29.77,1.2,NNE,4.6,-,N/A,Rain,Light Rain,20,2013-10-13 23:00:00
6:30 AM,73.4,71.6,94,29.77,1.2,NNE,3.5,-,N/A,Rain,Light Rain,30,2013-10-13 23:30:00
7:00 AM,75.2,71.6,89,29.77,1.2,NNE,4.6,-,N/A,Rain,Light Rain,30,2013-10-14 00:00:00
8:00 AM,77.0,73.4,89,29.77,1.9,NNE,3.5,-,N/A,,Mostly Cloudy,20,2013-10-14 01:00:00
8:30 AM,80.6,75.2,84,29.80,1.9,North,3.5,-,N/A,,Mostly Cloudy,10,2013-10-14 01:30:00
9:00 AM,82.4,75.2,79,29.80,1.9,NNE,3.5,-,N/A,,Mostly Cloudy,30,2013-10-14 02:00:00
9:30 AM,86.0,77.0,74,29.80,2.5,North,4.6,-,N/A,,Mostly Cloudy,10,2013-10-14 02:30:00
10:00 AM,84.2,77.0,79,29.83,1.9,NNW,3.5,-,N/A,,Mostly Cloudy,340,2013-10-14 03:00:00
10:30 AM,86.0,77.0,74,29.80,2.5,WNW,4.6,-,N/A,,Mostly Cloudy,300,2013-10-14 03:30:00
11:00 AM,87.8,77.0,70,29.80,2.5,NNW,9.2,-,N/A,,Mostly Cloudy,330,2013-10-14 04:00:00
11:30 AM,89.6,77.0,66,29.80,3.1,NNW,6.9,-,N/A,,Mostly Cloudy,340,2013-10-14 04:30:00
12:00 PM,91.4,75.2,59,29.77,3.7,NW,9.2,-,N/A,,Mostly Cloudy,310,2013-10-14 05:00:00
12:30 PM,89.6,78.8,70,29.74,4.3,NW,6.9,-,N/A,,Mostly Cloudy,310,2013-10-14 05:30:00
1:00 PM,91.4,77.0,63,29.74,4.3,NNW,9.2,-,N/A,,Mostly Cloudy,330,2013-10-14 06:00:00
1:30 PM,89.6,77.0,66,29.71,4.3,West,9.2,-,N/A,,Mostly Cloudy,280,2013-10-14 06:30:00
2:00 PM,87.8,77.0,70,29.71,4.3,West,9.2,-,N/A,,Mostly Cloudy,280,2013-10-14 07:00:00
2:30 PM,87.8,75.2,66,29.71,4.3,NW,6.9,-,N/A,,Mostly Cloudy,320,2013-10-14 07:30:00
3:00 PM,86.0,77.0,74,29.68,4.3,NW,9.2,-,N/A,,Mostly Cloudy,320,2013-10-14 08:00:00
3:30 PM,89.6,77.0,66,29.68,4.3,NW,4.6,-,N/A,,Mostly Cloudy,310,2013-10-14 08:30:00
4:00 PM,87.8,77.0,70,29.68,3.7,NNE,3.5,-,N/A,,Mostly Cloudy,30,2013-10-14 09:00:00
4:30 PM,86.0,77.0,74,29.68,3.1,NNE,3.5,-,N/A,,Mostly Cloudy,30,2013-10-14 09:30:00
5:00 PM,86.0,77.0,74,29.68,3.1,NNE,3.5,-,N/A,,Mostly Cloudy,30,2013-10-14 10:00:00
5:30 PM,86.0,77.0,74,29.68,3.1,NNW,3.5,-,N/A,,Mostly Cloudy,330,2013-10-14 10:30:00
6:00 PM,84.2,77.0,79,29.71,3.1,Calm,Calm,-,N/A,,Mostly Cloudy,0,2013-10-14 11:00:00
6:30 PM,84.2,77.0,79,29.71,3.1,Calm,Calm,-,N/A,,Mostly Cloudy,0,2013-10-14 11:30:00
7:00 PM,82.4,77.0,84,29.71,3.1,Calm,Calm,-,N/A,,Mostly Cloudy,0,2013-10-14 12:00:00
7:30 PM,82.4,77.0,84,29.74,3.1,Calm,Calm,-,N/A,,Mostly Cloudy,0,2013-10-14 12:30:00
8:00 PM,82.4,77.0,84,29.74,2.5,Calm,Calm,-,N/A,,Mostly Cloudy,0,2013-10-14 13:00:00
8:30 PM,82.4,77.0,84,29.74,2.5,Calm,Calm,-,N/A,,Scattered Clouds,0,2013-10-14 13:30:00
9:00 PM,82.4,77.0,84,29.77,2.5,Calm,Calm,-,N/A,,Scattered Clouds,0,2013-10-14 14:00:00
9:30 PM,80.6,77.0,89,29.77,2.5,Calm,Calm,-,N/A,,Scattered Clouds,0,2013-10-14 14:30:00
10:00 PM,80.6,77.0,89,29.77,2.5,Calm,Calm,-,N/A,,Scattered Clouds,0,2013-10-14 15:00:00
10:30 PM,80.6,77.0,89,29.80,2.5,Calm,Calm,-,N/A,,Scattered Clouds,0,2013-10-14 15:30:00
11:00 PM,80.6,77.0,89,29.80,1.9,NNE,3.5,-,N/A,,Mostly Cloudy,20,2013-10-14 16:00:00
11:30 PM,80.6,77.0,89,29.77,1.9,ENE,2.3,-,N/A,,Mostly Cloudy,60,2013-10-14 16:30:00